OMA1076 OOMS-UACC

Flight info

Callsign OMA1076
Flight time N/A
Altitude 33000
Route ITLA1N ITLAK DCT MCT T500 VUSET R462 EGTAL B505 PG J215 ATRIS/N0459F350 G325 SAJAN/N0468F340 A466 SITAX M875 KHOLM/N0463F360 M875 AMDAR/K0841F350 L148 OLRAM A114 MOSOM L170 KUFIM M168 ABEKA/K0843F370 M168 DODUR/K0833F360 Z578 ARSUL Z632 GENDI M168 TIMKA/K0832F370 P178 AMIGU M75 KOKON KOKO4S
Aircraft A21N/M-SDE3FGHIRWY/LB1

Departure

Time 2026-04-30 11:57
Airport Muscat International Airport (OOMS)

Arrival

Time N/A
Airport Nursultan Nazarbayev International Airport (UACC)
Time Latitude Longitude Altitude Speed Heading
2026-04-30 11:32 23.60123 58.28382 64 ft 0 kts 172°
2026-04-30 11:46 23.60156 58.28377 64 ft 7 kts 172°
2026-04-30 11:46 23.60202 58.28370 64 ft 7 kts 172°
2026-04-30 11:47 23.60235 58.28394 64 ft 7 kts 264°
2026-04-30 11:47 23.60235 58.28400 64 ft 0 kts 266°
2026-04-30 11:49 23.60235 58.28399 64 ft 1 kts 266°
2026-04-30 11:49 23.60234 58.28380 64 ft 5 kts 266°
2026-04-30 11:50 23.60231 58.28330 64 ft 9 kts 266°
2026-04-30 11:50 23.60226 58.28249 64 ft 13 kts 266°
2026-04-30 11:50 23.60218 58.28138 64 ft 17 kts 266°
2026-04-30 11:50 23.60209 58.27998 64 ft 20 kts 266°
2026-04-30 11:51 23.60199 58.27859 64 ft 14 kts 266°
2026-04-30 11:51 23.60246 58.27767 64 ft 16 kts 319°
2026-04-30 11:51 23.60335 58.27683 64 ft 18 kts 319°
2026-04-30 11:51 23.60427 58.27595 64 ft 15 kts 317°
2026-04-30 11:52 23.60459 58.27495 64 ft 14 kts 266°
2026-04-30 11:52 23.60449 58.27374 64 ft 18 kts 265°
2026-04-30 11:52 23.60437 58.27227 64 ft 21 kts 265°
2026-04-30 11:52 23.60424 58.27060 64 ft 22 kts 264°
2026-04-30 11:53 23.60411 58.26898 64 ft 21 kts 265°
2026-04-30 11:53 23.60398 58.26745 64 ft 20 kts 265°
2026-04-30 11:53 23.60386 58.26595 64 ft 20 kts 265°
2026-04-30 11:53 23.60374 58.26449 64 ft 20 kts 264°
2026-04-30 11:54 23.60362 58.26301 64 ft 20 kts 265°
2026-04-30 11:54 23.60351 58.26154 64 ft 19 kts 265°
2026-04-30 11:54 23.60339 58.26006 64 ft 19 kts 265°
2026-04-30 11:54 23.60341 58.25872 64 ft 15 kts 298°
2026-04-30 11:55 23.60430 58.25818 64 ft 15 kts 355°
2026-04-30 11:55 23.60526 58.25817 64 ft 10 kts 25°
2026-04-30 11:55 23.60587 58.25845 64 ft 9 kts 35°
2026-04-30 11:55 23.60597 58.25865 64 ft 0 kts 86°
2026-04-30 11:56 23.60599 58.25899 64 ft 24 kts 86°
2026-04-30 11:56 23.60633 58.26319 64 ft 84 kts 85°
2026-04-30 11:56 23.60700 58.27149 64 ft 133 kts 84°
2026-04-30 11:56 23.60793 58.28308 79 ft 170 kts 84°
2026-04-30 11:57 23.60890 58.29577 694 ft 170 kts 83°
2026-04-30 11:57 23.61000 58.30889 1508 ft 178 kts 85°
2026-04-30 11:57 23.61113 58.32277 2027 ft 192 kts 85°
2026-04-30 11:57 23.61237 58.33828 2100 ft 218 kts 85°
2026-04-30 11:58 23.61378 58.35603 2160 ft 252 kts 85°
2026-04-30 11:58 23.61538 58.37607 2450 ft 272 kts 85°
2026-04-30 11:58 23.61700 58.39642 3328 ft 269 kts 85°
2026-04-30 11:58 23.61864 58.41698 4015 ft 274 kts 85°
2026-04-30 11:59 23.62029 58.43775 4783 ft 276 kts 85°
2026-04-30 11:59 23.62196 58.45871 5494 ft 279 kts 85°
2026-04-30 11:59 23.62362 58.47960 6204 ft 281 kts 85°
2026-04-30 11:59 23.62532 58.50097 6908 ft 284 kts 84°
2026-04-30 12:00 23.62811 58.52241 7589 ft 287 kts 78°
2026-04-30 12:00 23.63218 58.54382 8275 ft 290 kts 78°
2026-04-30 12:00 23.63634 58.56547 8934 ft 293 kts 77°
2026-04-30 12:00 23.64055 58.58738 9589 ft 296 kts 77°
2026-04-30 12:01 23.64478 58.60947 10214 ft 301 kts 77°
2026-04-30 12:01 23.64921 58.63257 10378 ft 323 kts 77°
2026-04-30 12:01 23.65398 58.65745 10461 ft 347 kts 77°
2026-04-30 12:01 23.65902 58.68378 10882 ft 357 kts 77°
2026-04-30 12:02 23.66409 58.71037 11616 ft 358 kts 77°
2026-04-30 12:02 23.66921 58.73720 12188 ft 364 kts 77°
2026-04-30 12:02 23.67440 58.76437 12804 ft 368 kts 77°
2026-04-30 12:02 23.68171 58.79096 13372 ft 372 kts 67°
2026-04-30 12:03 23.69365 58.81612 13949 ft 375 kts 56°
2026-04-30 12:03 23.72570 58.86189 15061 ft 384 kts 50°
2026-04-30 12:03 23.74240 58.88484 15610 ft 388 kts 50°
2026-04-30 12:04 23.75940 58.90805 16152 ft 392 kts 50°
2026-04-30 12:04 23.77661 58.93146 16684 ft 397 kts 50°
2026-04-30 12:04 23.79381 58.95481 17198 ft 401 kts 50°
2026-04-30 12:04 23.81141 58.97864 17712 ft 405 kts 50°
2026-04-30 12:05 23.82920 59.00272 18212 ft 409 kts 50°
2026-04-30 12:05 23.84717 59.02703 18689 ft 413 kts 50°
2026-04-30 12:05 23.86530 59.05156 19155 ft 417 kts 50°
2026-04-30 12:05 23.88359 59.07630 19610 ft 420 kts 50°
2026-04-30 12:06 23.90204 59.10127 20054 ft 424 kts 50°
2026-04-30 12:06 23.92046 59.12619 20486 ft 427 kts 50°
2026-04-30 12:06 23.93766 59.15287 20895 ft 432 kts 58°
2026-04-30 12:06 23.95129 59.18235 21320 ft 436 kts 64°
2026-04-30 12:07 23.96421 59.21248 21700 ft 440 kts 64°
2026-04-30 12:07 23.97715 59.24292 22089 ft 443 kts 64°
2026-04-30 12:07 23.98576 59.26321 22339 ft 445 kts 64°
2026-04-30 12:07 23.99897 59.29441 22718 ft 448 kts 64°
2026-04-30 12:08 24.01198 59.32517 23033 ft 452 kts 64°
2026-04-30 12:08 24.02563 59.35627 23422 ft 454 kts 63°
2026-04-30 12:08 24.03954 59.38738 23787 ft 456 kts 63°
2026-04-30 12:08 24.05355 59.41869 24123 ft 459 kts 63°
2026-04-30 12:09 24.06761 59.45013 24463 ft 461 kts 63°
2026-04-30 12:09 24.08174 59.48173 24786 ft 463 kts 63°
2026-04-30 12:09 24.09575 59.51316 25096 ft 465 kts 63°
2026-04-30 12:09 24.10994 59.54508 25397 ft 467 kts 63°
2026-04-30 12:10 24.12420 59.57717 25690 ft 469 kts 63°
2026-04-30 12:10 24.13853 59.60941 25973 ft 471 kts 63°
2026-04-30 12:10 24.15293 59.64184 26249 ft 473 kts 63°
2026-04-30 12:10 24.16737 59.67436 26518 ft 475 kts 63°
2026-04-30 12:11 24.18184 59.70699 26776 ft 477 kts 63°
2026-04-30 12:11 24.19638 59.73979 27025 ft 479 kts 63°
2026-04-30 12:11 24.21076 59.77224 27262 ft 481 kts 63°
2026-04-30 12:11 24.22540 59.80527 27494 ft 482 kts 63°
2026-04-30 12:12 24.24006 59.83840 27719 ft 484 kts 63°
2026-04-30 12:12 24.25476 59.87165 27940 ft 486 kts 63°
2026-04-30 12:12 24.26950 59.90499 28158 ft 487 kts 63°
2026-04-30 12:12 24.28426 59.93841 28467 ft 486 kts 63°
2026-04-30 12:13 24.29903 59.97187 28684 ft 488 kts 63°
2026-04-30 12:13 24.31383 60.00540 28882 ft 489 kts 63°
2026-04-30 12:13 24.32860 60.03893 29261 ft 487 kts 63°
2026-04-30 12:13 24.34341 60.07252 29364 ft 491 kts 63°
2026-04-30 12:14 24.35822 60.10626 29579 ft 492 kts 63°
2026-04-30 12:14 24.37283 60.13975 29770 ft 493 kts 63°
2026-04-30 12:14 24.38765 60.17375 29946 ft 495 kts 63°
2026-04-30 12:14 24.40255 60.20789 30135 ft 496 kts 63°
2026-04-30 12:15 24.41748 60.24211 30315 ft 498 kts 63°
2026-04-30 12:15 24.43247 60.27647 30494 ft 499 kts 63°
2026-04-30 12:15 24.44750 60.31091 30671 ft 501 kts 63°
2026-04-30 12:15 24.46261 60.34552 30846 ft 502 kts 63°
2026-04-30 12:16 24.47774 60.38021 31019 ft 504 kts 63°
2026-04-30 12:16 24.49273 60.41457 31204 ft 505 kts 63°
2026-04-30 12:16 24.50792 60.44941 31380 ft 506 kts 63°
2026-04-30 12:16 24.52315 60.48436 31574 ft 506 kts 63°
2026-04-30 12:17 24.55354 60.55412 32077 ft 505 kts 64°
2026-04-30 12:17 24.56750 60.58950 32302 ft 505 kts 70°
2026-04-30 12:17 24.57662 60.62622 32539 ft 504 kts 79°
2026-04-30 12:18 24.58068 60.66454 32754 ft 505 kts 89°
2026-04-30 12:18 24.58123 60.70322 32826 ft 505 kts 90°
2026-04-30 12:18 24.58176 60.78015 32846 ft 502 kts 91°
2026-04-30 12:19 24.58211 60.85698 32848 ft 501 kts 91°
2026-04-30 12:19 24.58236 60.93354 32848 ft 501 kts 91°
2026-04-30 12:20 24.58251 61.00936 32862 ft 498 kts 91°
2026-04-30 12:20 24.58261 61.08550 32865 ft 498 kts 91°
2026-04-30 12:21 24.58265 61.16153 32868 ft 497 kts 91°
2026-04-30 12:21 24.58263 61.23762 32872 ft 496 kts 91°
2026-04-30 12:22 24.58531 61.31322 32877 ft 496 kts 82°
2026-04-30 12:22 24.60321 61.38580 32891 ft 495 kts 70°
2026-04-30 12:23 24.62688 61.45702 32914 ft 496 kts 68°
2026-04-30 12:23 24.65192 61.52773 32919 ft 494 kts 68°
2026-04-30 12:24 24.67702 61.59815 32924 ft 493 kts 68°
2026-04-30 12:24 24.70195 61.66805 32927 ft 493 kts 68°
2026-04-30 12:25 24.72697 61.73829 32928 ft 493 kts 68°
2026-04-30 12:25 24.75182 61.80815 32936 ft 490 kts 68°
2026-04-30 12:26 24.77670 61.87819 32932 ft 492 kts 68°
2026-04-30 12:26 24.80149 61.94809 32925 ft 494 kts 68°
2026-04-30 12:27 24.82647 62.01869 32917 ft 496 kts 68°
2026-04-30 12:27 24.85149 62.08951 32913 ft 496 kts 68°
2026-04-30 12:28 24.87647 62.16036 32915 ft 495 kts 68°
2026-04-30 12:28 24.90131 62.23093 32922 ft 493 kts 68°
2026-04-30 12:29 24.92606 62.30136 32933 ft 490 kts 68°
2026-04-30 12:29 24.95041 62.37080 32943 ft 488 kts 68°
2026-04-30 12:30 24.97488 62.44067 32939 ft 492 kts 68°
2026-04-30 12:30 24.99947 62.51103 32936 ft 491 kts 68°
2026-04-30 12:31 25.02400 62.58136 32932 ft 492 kts 68°
2026-04-30 12:31 25.04861 62.65202 32924 ft 494 kts 68°
2026-04-30 12:32 25.07328 62.72297 32912 ft 496 kts 68°
2026-04-30 12:32 25.09785 62.79378 32901 ft 499 kts 68°
2026-04-30 12:33 25.12265 62.86537 32891 ft 500 kts 68°
2026-04-30 12:33 25.14751 62.93729 32886 ft 501 kts 68°
2026-04-30 12:34 25.17232 63.00916 32884 ft 501 kts 68°
2026-04-30 12:34 25.19714 63.08121 32884 ft 501 kts 68°
2026-04-30 12:35 25.22175 63.15278 32886 ft 501 kts 68°
2026-04-30 12:35 25.24648 63.22484 32855 ft 504 kts 68°
2026-04-30 12:36 25.27251 63.29685 32828 ft 503 kts 59°
2026-04-30 12:36 25.29235 63.32833 32824 ft 497 kts 45°
2026-04-30 12:36 25.31803 63.35345 32819 ft 490 kts 31°
2026-04-30 12:37 25.34781 63.37117 32822 ft 484 kts 20°
2026-04-30 12:37 25.37854 63.38635 32814 ft 484 kts 19°
2026-04-30 12:37 25.44016 63.41636 32807 ft 484 kts 19°
2026-04-30 12:38 25.50154 63.44595 32806 ft 484 kts 19°
2026-04-30 12:38 25.56378 63.47579 32799 ft 485 kts 18°
2026-04-30 12:39 25.62534 63.50515 32777 ft 484 kts 18°
2026-04-30 12:39 25.68718 63.53455 32730 ft 483 kts 18°
2026-04-30 12:40 25.74899 63.56387 32723 ft 483 kts 18°
2026-04-30 12:40 25.81086 63.59318 32715 ft 483 kts 18°
2026-04-30 12:41 25.87239 63.62231 32705 ft 483 kts 18°
2026-04-30 12:41 25.93447 63.65170 32695 ft 483 kts 18°
2026-04-30 12:42 25.99590 63.68079 32685 ft 483 kts 18°
2026-04-30 12:42 26.05763 63.71007 32697 ft 482 kts 18°
2026-04-30 12:43 26.11936 63.73933 32696 ft 482 kts 18°
2026-04-30 12:43 26.18117 63.76863 32698 ft 481 kts 18°
2026-04-30 12:44 26.24278 63.79783 32707 ft 481 kts 18°
2026-04-30 12:44 26.30391 63.82683 32702 ft 479 kts 18°
2026-04-30 12:45 26.36516 63.85588 32719 ft 478 kts 18°
2026-04-30 12:45 26.42646 63.88497 32741 ft 477 kts 18°
2026-04-30 12:46 26.48748 63.91396 32765 ft 476 kts 18°
2026-04-30 12:46 26.54808 63.94278 32788 ft 475 kts 18°
2026-04-30 12:47 26.60884 63.97169 32809 ft 474 kts 18°
2026-04-30 12:47 26.66953 64.00060 32827 ft 473 kts 18°
2026-04-30 12:48 26.73015 64.02951 32842 ft 473 kts 18°
2026-04-30 12:48 26.79065 64.05840 32849 ft 473 kts 18°
2026-04-30 12:49 26.85140 64.08744 32843 ft 472 kts 18°
2026-04-30 12:49 26.91127 64.11648 32862 ft 472 kts 21°
2026-04-30 12:50 26.96657 64.15699 32882 ft 480 kts 37°
2026-04-30 12:50 27.01460 64.20963 32878 ft 484 kts 41°
2026-04-30 12:51 27.06215 64.26340 32860 ft 486 kts 41°
2026-04-30 12:51 27.10976 64.31742 32843 ft 488 kts 41°
2026-04-30 12:52 27.15746 64.37172 32828 ft 489 kts 41°
2026-04-30 12:52 27.20495 64.42592 32814 ft 490 kts 41°
2026-04-30 12:53 27.25282 64.48067 32801 ft 491 kts 41°
2026-04-30 12:53 27.30076 64.53561 32789 ft 492 kts 41°
2026-04-30 12:54 27.34872 64.59068 32779 ft 493 kts 41°
2026-04-30 12:54 27.38860 64.63654 32772 ft 493 kts 41°
2026-04-30 12:55 27.43666 64.69192 32785 ft 495 kts 40°
2026-04-30 12:55 27.48489 64.74756 32781 ft 497 kts 40°
2026-04-30 12:56 27.53322 64.80340 32779 ft 498 kts 40°
2026-04-30 12:56 27.58193 64.85977 32763 ft 505 kts 40°
2026-04-30 12:57 27.63060 64.91616 32763 ft 505 kts 40°
2026-04-30 12:57 27.67948 64.97287 33052 ft 502 kts 40°
2026-04-30 12:58 27.70383 65.00116 33302 ft 501 kts 40°
2026-04-30 12:58 27.72816 65.02944 33552 ft 501 kts 40°
2026-04-30 12:58 27.75238 65.05761 33802 ft 500 kts 40°
2026-04-30 12:58 27.77660 65.08580 34052 ft 499 kts 40°
2026-04-30 12:59 27.80046 65.11358 34299 ft 498 kts 40°
2026-04-30 12:59 27.82460 65.14171 34549 ft 497 kts 40°
2026-04-30 12:59 27.84881 65.16993 34720 ft 500 kts 40°
2026-04-30 12:59 27.87320 65.19836 34766 ft 506 kts 40°
2026-04-30 13:00 27.92227 65.25567 34780 ft 505 kts 40°
2026-04-30 13:00 27.97078 65.31244 34780 ft 505 kts 40°
2026-04-30 13:01 28.01955 65.36957 34780 ft 504 kts 40°
2026-04-30 13:01 28.06833 65.42682 34780 ft 504 kts 40°
2026-04-30 13:02 28.11670 65.48450 34780 ft 504 kts 40°
2026-04-30 13:02 28.16498 65.54211 34785 ft 504 kts 40°
2026-04-30 13:03 28.21338 65.59973 34786 ft 504 kts 40°
2026-04-30 13:03 28.26177 65.65726 34786 ft 504 kts 40°
2026-04-30 13:04 28.30989 65.71443 34786 ft 504 kts 40°
2026-04-30 13:04 28.35835 65.77201 34786 ft 504 kts 40°
2026-04-30 13:05 28.40680 65.82959 34786 ft 504 kts 40°
2026-04-30 13:06 28.47917 65.91566 34786 ft 504 kts 40°
2026-04-30 13:06 28.52762 65.97334 34786 ft 504 kts 40°
2026-04-30 13:07 28.57597 66.03100 34786 ft 502 kts 40°
2026-04-30 13:07 28.62413 66.08848 34786 ft 502 kts 40°
2026-04-30 13:08 28.67242 66.14616 34786 ft 502 kts 40°
2026-04-30 13:08 28.72066 66.20385 34786 ft 502 kts 40°
2026-04-30 13:09 28.76882 66.26153 34786 ft 502 kts 40°
2026-04-30 13:09 28.81676 66.31903 34786 ft 502 kts 40°
2026-04-30 13:10 28.86492 66.37687 34786 ft 502 kts 40°
2026-04-30 13:10 28.91305 66.43475 34786 ft 502 kts 39°
2026-04-30 13:11 28.96086 66.49233 34786 ft 502 kts 39°
2026-04-30 13:11 29.00884 66.55021 34786 ft 502 kts 39°
2026-04-30 13:12 29.05688 66.60850 34786 ft 503 kts 40°
2026-04-30 13:12 29.10473 66.66696 34786 ft 503 kts 39°
2026-04-30 13:13 29.17655 66.75446 34786 ft 503 kts 39°
2026-04-30 13:14 29.24816 66.84156 34786 ft 503 kts 39°
2026-04-30 13:14 29.32026 66.92924 34786 ft 503 kts 39°
2026-04-30 13:15 29.39191 67.01639 34809 ft 498 kts 40°
2026-04-30 13:16 29.43942 67.07424 34816 ft 498 kts 40°
2026-04-30 13:16 29.48668 67.13185 34821 ft 497 kts 40°
2026-04-30 13:17 29.55781 67.21868 34828 ft 496 kts 41°
2026-04-30 13:18 29.62839 67.30504 34833 ft 496 kts 41°
2026-04-30 13:18 29.69914 67.39176 34838 ft 495 kts 41°
2026-04-30 13:19 29.74623 67.44964 34841 ft 495 kts 41°
2026-04-30 13:19 29.79311 67.50769 34846 ft 492 kts 41°
2026-04-30 13:20 29.83948 67.56510 34841 ft 489 kts 41°
2026-04-30 13:20 29.88576 67.62230 34825 ft 492 kts 41°
2026-04-30 13:21 29.93258 67.68019 34800 ft 495 kts 40°
2026-04-30 13:22 30.00340 67.76775 34752 ft 500 kts 39°
2026-04-30 13:22 30.07492 67.85624 34713 ft 503 kts 39°
2026-04-30 13:23 30.14646 67.94447 34700 ft 503 kts 38°
2026-04-30 13:24 30.24229 68.06244 34702 ft 503 kts 38°
2026-04-30 13:25 30.33801 68.18067 34691 ft 505 kts 38°
2026-04-30 13:26 30.45788 68.32896 34668 ft 505 kts 38°
2026-04-30 13:28 30.57811 68.47798 34668 ft 506 kts 38°
2026-04-30 13:28 30.64971 68.56697 34668 ft 504 kts 38°
2026-04-30 13:29 30.74546 68.68623 34668 ft 504 kts 38°
2026-04-30 13:31 30.86465 68.83518 34668 ft 503 kts 38°
2026-04-30 13:32 30.98375 68.98460 34667 ft 502 kts 38°
2026-04-30 13:33 31.07855 69.10393 34667 ft 502 kts 38°
2026-04-30 13:34 31.14975 69.19381 34670 ft 502 kts 38°
2026-04-30 13:35 31.24440 69.31361 34673 ft 502 kts 38°
2026-04-30 13:36 31.33877 69.43343 34675 ft 502 kts 38°
2026-04-30 13:36 31.41799 69.50738 34674 ft 477 kts 21°
2026-04-30 13:37 31.50271 69.56799 34659 ft 475 kts 20°
2026-04-30 13:38 31.58752 69.62813 34715 ft 476 kts 20°
2026-04-30 13:39 31.70109 69.70831 34724 ft 475 kts 20°
2026-04-30 13:40 31.78573 69.76796 34729 ft 475 kts 20°
2026-04-30 13:40 31.84241 69.80789 34729 ft 475 kts 20°
2026-04-30 13:41 31.89909 69.84783 34732 ft 475 kts 20°
2026-04-30 13:41 31.95598 69.88791 34739 ft 476 kts 20°
2026-04-30 13:42 32.01276 69.92800 34734 ft 475 kts 20°
2026-04-30 13:42 32.09754 69.98789 34735 ft 475 kts 20°
2026-04-30 13:43 32.14468 70.02124 34739 ft 473 kts 20°
2026-04-30 13:43 32.21034 70.06773 34745 ft 474 kts 20°
2026-04-30 13:44 32.25773 70.10133 34751 ft 474 kts 20°
2026-04-30 13:44 32.31399 70.14126 34763 ft 473 kts 21°
2026-04-30 13:45 32.39885 70.20134 34772 ft 472 kts 21°
2026-04-30 13:46 32.45551 70.24100 34776 ft 472 kts 21°
2026-04-30 13:46 32.51175 70.28038 34762 ft 471 kts 20°
2026-04-30 13:47 32.56799 70.31921 34734 ft 462 kts 15°
2026-04-30 13:47 32.59749 70.33226 34732 ft 443 kts
2026-04-30 13:47 32.62733 70.33749 34734 ft 426 kts 352°
2026-04-30 13:47 32.65636 70.33565 34735 ft 411 kts 341°
2026-04-30 13:48 32.68369 70.32739 34734 ft 400 kts 332°
2026-04-30 13:48 32.73254 70.29806 34736 ft 392 kts 324°
2026-04-30 13:49 32.77951 70.26634 34732 ft 391 kts 323°
2026-04-30 13:49 32.82651 70.23371 34734 ft 390 kts 323°
2026-04-30 13:50 32.87326 70.20073 34726 ft 390 kts 322°
2026-04-30 13:50 32.94281 70.15115 34877 ft 387 kts 322°
2026-04-30 13:51 32.96583 70.13468 35127 ft 385 kts 322°
2026-04-30 13:51 32.98874 70.11821 35376 ft 384 kts 322°
2026-04-30 13:51 33.01163 70.10175 35610 ft 384 kts 322°
2026-04-30 13:51 33.03459 70.08519 35700 ft 388 kts 322°
2026-04-30 13:52 33.08091 70.05197 35727 ft 392 kts 323°
2026-04-30 13:52 33.12907 70.02124 35730 ft 392 kts 325°
2026-04-30 13:53 33.17734 69.99076 35734 ft 392 kts 325°
2026-04-30 13:53 33.22566 69.96026 35738 ft 392 kts 325°
2026-04-30 13:54 33.27394 69.92977 35742 ft 392 kts 325°
2026-04-30 13:54 33.32191 69.89945 35750 ft 392 kts 325°
2026-04-30 13:55 33.37025 69.86887 35753 ft 392 kts 325°
2026-04-30 13:55 33.41856 69.83827 35758 ft 393 kts 325°
2026-04-30 13:56 33.46657 69.80783 35763 ft 392 kts 325°
2026-04-30 13:56 33.51481 69.77720 35768 ft 393 kts 325°
2026-04-30 13:57 33.56329 69.74692 35773 ft 392 kts 325°
2026-04-30 13:57 33.61188 69.71676 35776 ft 393 kts 325°
2026-04-30 13:58 33.68470 69.67156 35780 ft 393 kts 325°
2026-04-30 13:59 33.73335 69.64134 35783 ft 393 kts 325°
2026-04-30 13:59 33.78160 69.61131 35858 ft 394 kts 326°
2026-04-30 14:00 33.83084 69.58062 35911 ft 401 kts 326°
2026-04-30 14:00 33.90525 69.53427 35918 ft 400 kts 326°
2026-04-30 14:01 33.95474 69.50338 35919 ft 401 kts 326°
2026-04-30 14:01 34.00442 69.47233 35920 ft 402 kts 326°
2026-04-30 14:02 34.05377 69.44143 35923 ft 403 kts 326°
2026-04-30 14:02 34.10374 69.41011 35927 ft 404 kts 326°
2026-04-30 14:03 34.15372 69.37867 35931 ft 406 kts 327°
2026-04-30 14:03 34.20406 69.34704 35936 ft 409 kts 327°
2026-04-30 14:04 34.25489 69.31512 35944 ft 413 kts 327°
2026-04-30 14:04 34.30584 69.28309 35954 ft 418 kts 328°
2026-04-30 14:05 34.35774 69.25046 35965 ft 423 kts 328°
2026-04-30 14:05 34.41022 69.21744 35974 ft 427 kts 329°
2026-04-30 14:06 34.48981 69.16732 35985 ft 431 kts 329°
2026-04-30 14:07 34.56908 69.11655 35987 ft 431 kts 329°
2026-04-30 14:08 34.64874 69.06512 35984 ft 430 kts 328°
2026-04-30 14:08 34.72715 69.01448 35968 ft 423 kts 328°
2026-04-30 14:09 34.77883 68.98103 35956 ft 418 kts 327°
2026-04-30 14:10 34.85530 68.93141 35936 ft 411 kts 326°
2026-04-30 14:10 34.90557 68.89872 35929 ft 408 kts 326°
2026-04-30 14:11 34.95535 68.86629 35925 ft 408 kts 326°
2026-04-30 14:11 35.00545 68.83362 35923 ft 408 kts 326°
2026-04-30 14:12 35.05561 68.80087 35925 ft 410 kts 326°
2026-04-30 14:12 35.10595 68.76798 35930 ft 410 kts 326°
2026-04-30 14:13 35.15600 68.73525 35925 ft 407 kts 326°
2026-04-30 14:13 35.20607 68.70244 35930 ft 409 kts 326°
2026-04-30 14:14 35.25624 68.66953 35929 ft 409 kts 326°
2026-04-30 14:14 35.30646 68.63654 35930 ft 409 kts 326°
2026-04-30 14:15 35.35632 68.60374 35930 ft 409 kts 326°
2026-04-30 14:15 35.40653 68.57067 35931 ft 409 kts 326°
2026-04-30 14:16 35.45666 68.53761 35930 ft 408 kts 325°
2026-04-30 14:16 35.50602 68.50503 35927 ft 403 kts 325°
2026-04-30 14:17 35.55553 68.47222 35914 ft 408 kts 325°
2026-04-30 14:17 35.60548 68.43902 35910 ft 408 kts 324°
2026-04-30 14:18 35.65533 68.40535 35905 ft 408 kts 324°
2026-04-30 14:18 35.72990 68.35515 35897 ft 409 kts 325°
2026-04-30 14:19 35.80488 68.30474 35885 ft 409 kts 325°
2026-04-30 14:20 35.85489 68.27111 35877 ft 409 kts 325°
2026-04-30 14:20 35.92996 68.22058 35865 ft 409 kts 325°
2026-04-30 14:21 35.97983 68.18696 35857 ft 411 kts 324°
2026-04-30 14:22 36.05517 68.13608 35852 ft 411 kts 324°
2026-04-30 14:22 36.13015 68.08534 35851 ft 412 kts 324°
2026-04-30 14:23 36.23068 68.01714 35856 ft 414 kts 325°
2026-04-30 14:24 36.30687 67.96533 35862 ft 416 kts 325°
2026-04-30 14:25 36.40852 67.89604 35876 ft 420 kts 326°
2026-04-30 14:26 36.48555 67.84341 35887 ft 422 kts 326°
2026-04-30 14:27 36.56290 67.79045 35897 ft 424 kts 326°
2026-04-30 14:27 36.61371 67.75567 35864 ft 417 kts 325°
2026-04-30 14:28 36.69017 67.70302 35861 ft 419 kts 325°
2026-04-30 14:28 36.74129 67.66762 35860 ft 420 kts 325°
2026-04-30 14:29 36.83485 67.60273 35857 ft 420 kts 325°
2026-04-30 14:31 36.97142 67.50829 35846 ft 422 kts 325°
2026-04-30 14:31 37.02335 67.47227 35566 ft 429 kts 326°
2026-04-30 14:31 37.04065 67.46034 35482 ft 427 kts 326°
2026-04-30 14:32 37.10102 67.41854 35192 ft 427 kts 326°
2026-04-30 14:32 37.12711 67.40044 35067 ft 429 kts 326°
2026-04-30 14:33 37.17131 67.37176 34902 ft 434 kts 334°
2026-04-30 14:33 37.23176 67.35945 34879 ft 453 kts 358°
2026-04-30 14:33 37.26321 67.36581 34883 ft 461 kts
2026-04-30 14:34 37.32582 67.38404 34878 ft 461 kts
2026-04-30 14:34 37.38799 67.40254 34878 ft 462 kts
2026-04-30 14:35 37.48180 67.43090 34877 ft 462 kts
2026-04-30 14:36 37.54403 67.44995 34881 ft 462 kts
2026-04-30 14:36 37.60655 67.46924 34883 ft 463 kts
2026-04-30 14:37 37.66921 67.48869 34885 ft 463 kts
2026-04-30 14:37 37.73178 67.50821 34867 ft 464 kts
2026-04-30 14:38 37.79399 67.52770 34853 ft 463 kts
2026-04-30 14:38 37.85656 67.54739 34852 ft 463 kts
2026-04-30 14:39 37.91926 67.56718 34851 ft 463 kts
2026-04-30 14:39 37.98189 67.58701 34851 ft 463 kts
2026-04-30 14:40 38.07557 67.61674 34863 ft 465 kts
2026-04-30 14:40 38.13834 67.63674 34864 ft 464 kts
2026-04-30 14:41 38.20114 67.65677 34875 ft 466 kts
2026-04-30 14:41 38.26373 67.67911 34883 ft 467 kts 12°
2026-04-30 14:42 38.32606 67.70279 34892 ft 467 kts 12°
2026-04-30 14:42 38.38831 67.72644 34903 ft 467 kts 12°
2026-04-30 14:43 38.45019 67.74994 34915 ft 467 kts 12°
2026-04-30 14:43 38.51251 67.77361 34928 ft 467 kts 12°
2026-04-30 14:44 38.57477 67.79728 34941 ft 466 kts 12°
2026-04-30 14:44 38.63698 67.82096 34954 ft 466 kts 12°
2026-04-30 14:45 38.69924 67.84468 34965 ft 466 kts 12°
2026-04-30 14:45 38.76089 67.86868 34974 ft 466 kts 13°
2026-04-30 14:46 38.82297 67.89315 34981 ft 466 kts 13°
2026-04-30 14:46 38.88502 67.91760 34989 ft 466 kts 13°
2026-04-30 14:47 38.94722 67.94213 34992 ft 467 kts 13°
2026-04-30 14:47 39.00900 67.96652 34993 ft 466 kts 13°
2026-04-30 14:48 39.07133 67.98944 34993 ft 465 kts 12°
2026-04-30 14:48 39.13371 68.01160 34993 ft 465 kts 12°
2026-04-30 14:49 39.19621 68.03381 34991 ft 465 kts 12°
2026-04-30 14:49 39.25861 68.05601 34988 ft 465 kts 12°
2026-04-30 14:50 39.35191 68.08926 34984 ft 465 kts 12°
2026-04-30 14:51 39.44543 68.12263 34961 ft 463 kts 12°
2026-04-30 14:52 39.53832 68.15589 34947 ft 463 kts 12°
2026-04-30 14:52 39.63100 68.19186 34935 ft 464 kts 14°
2026-04-30 14:53 39.72359 68.22922 34925 ft 464 kts 14°
2026-04-30 14:54 39.78576 68.25433 35304 ft 469 kts 14°
2026-04-30 14:54 39.84811 68.27955 35923 ft 469 kts 14°
2026-04-30 14:55 39.91036 68.30476 36521 ft 468 kts 13°
2026-04-30 14:55 39.94155 68.31740 36663 ft 470 kts 13°
2026-04-30 14:55 40.00392 68.34268 36880 ft 468 kts 13°
2026-04-30 14:56 40.06572 68.36777 36916 ft 467 kts 13°
2026-04-30 14:57 40.15873 68.40559 36923 ft 466 kts 13°
2026-04-30 14:58 40.28267 68.45615 36929 ft 466 kts 13°
2026-04-30 14:58 40.37519 68.49401 36932 ft 466 kts 13°
2026-04-30 15:00 40.53023 68.55795 36915 ft 469 kts 14°
2026-04-30 15:01 40.65391 68.61346 36916 ft 469 kts 15°
2026-04-30 15:01 40.74624 68.65439 36917 ft 467 kts 14°
2026-04-30 15:02 40.80814 68.68057 36918 ft 466 kts 11°
2026-04-30 15:03 40.96685 68.71332 36924 ft 461 kts
2026-04-30 15:04 41.12529 68.74585 36923 ft 462 kts
2026-04-30 15:06 41.28367 68.77887 36917 ft 461 kts
2026-04-30 15:07 41.41075 68.80098 36915 ft 457 kts 358°
2026-04-30 15:08 41.53810 68.80523 36894 ft 458 kts 358°
2026-04-30 15:09 41.69714 68.81018 36874 ft 459 kts 358°
2026-04-30 15:10 41.82503 68.81402 36853 ft 460 kts 358°
2026-04-30 15:11 42.01693 68.81978 36848 ft 460 kts 358°
2026-04-30 15:13 42.17687 68.82497 36850 ft 460 kts 358°
2026-04-30 15:14 42.40113 68.83051 36856 ft 458 kts 352°
2026-04-30 15:16 42.55086 68.76788 36857 ft 451 kts 336°
2026-04-30 15:17 42.66770 68.70622 36845 ft 452 kts 335°
2026-04-30 15:19 42.90178 68.58132 36845 ft 452 kts 335°